User: anonymous
Location: Tyler Bend Campground
(35.9875°N, 92.7606°W)
Time: 12:11:40
(UTC-05:00)
Language:

CZ-2C R/B - Orbit

View from above orbital plane
View from above orbital plane
View from above satellite
View from above satellite

Ground track
Ground track

The orbit data is extracted from the following two-line orbital elements,

1 36089U 09061B   14210.50134069  .00000270  00000-0  79120-4 0  3860
2 36089 098.1037 241.7745 0083389 049.7658 081.9619 14.49192900249060
Epoch (UTC): 29 July 2014 12:01:55
Eccentricity: 0.0083389
inclination: 98.1037°
perigee height: 669 km
apogee height: 787 km
right ascension of ascending node: 241.7745°
argument of perigee: 49.7658°
revolutions per day: 14.49192900
mean anomaly at epoch: 81.9619°
orbit number at epoch: 24906

The dashed part of the orbit path shows where the satellite is in the earth's shadow,  

DLR